CDT,Max TemperatureF,Mean TemperatureF,Min TemperatureF,Max Dew PointF,MeanDew PointF,Min DewpointF,Max Humidity, Mean Humidity, Min Humidity, Max Sea Level PressureIn, Mean Sea Level PressureIn, Min Sea Level PressureIn, Max VisibilityMiles, Mean VisibilityMiles, Min VisibilityMiles, Max Wind SpeedMPH, Mean Wind SpeedMPH, Max Gust SpeedMPH,PrecipitationIn, CloudCover, Events, WindDirDegrees
2011-10-1,71,58,46,39,37,36,71,49,28,30.29,30.22,30.13,10,10,7,9,4,16,0.00,0,,344
2011-10-2,73,57,41,39,36,34,76,54,23,30.33,30.26,30.20,10,10,9,8,4,,0.00,0,,325
2011-10-3,80,60,41,43,38,34,76,51,24,30.31,30.24,30.20,10,10,9,7,2,,0.00,0,,202
2011-10-4,80,62,44,45,41,37,76,52,26,30.32,30.24,30.20,10,10,8,12,2,,0.00,0,,109
2011-10-5,82,64,46,48,44,39,76,55,28,30.27,30.21,30.13,10,10,9,12,2,,0.00,0,,97
2011-10-6,84,67,50,54,48,43,77,54,29,30.21,30.16,30.12,10,10,7,13,3,20,0.00,0,,145
2011-10-7,84,70,55,55,50,48,77,48,30,30.28,30.21,30.17,10,10,10,14,6,18,0.00,0,,134
2011-10-8,84,70,57,55,52,48,72,51,35,30.28,30.22,30.16,10,10,10,15,7,17,0.00,0,,118
2011-10-9,82,68,55,54,51,48,77,55,34,30.26,30.19,30.10,10,10,10,16,6,21,0.00,0,,100
2011-10-10,80,66,53,55,52,46,77,59,39,30.14,30.07,30.00,10,10,10,9,4,,0.00,1,,94
2011-10-11,82,68,55,57,54,48,82,60,39,30.00,29.95,29.86,10,10,3,8,3,,0.00,2,,146
2011-10-12,68,64,60,57,55,54,82,74,60,29.88,29.82,29.72,10,8,3,7,3,,1.22,5,Thunderstorm,200
2011-10-13,75,65,55,54,47,41,82,57,31,29.84,29.76,29.68,10,10,10,13,6,25,0.00,1,Thunderstorm,283
2011-10-14,78,63,48,45,42,37,71,47,28,29.99,29.92,29.86,10,10,6,8,4,,0.00,0,,298
2011-10-15,77,62,48,43,39,36,67,44,26,30.18,30.11,30.02,10,10,10,7,3,,0.00,0,,236
2011-10-16,87,72,57,52,46,37,59,39,27,30.07,29.99,29.90,10,10,10,17,7,26,0.00,0,,208
2011-10-17,78,68,57,54,46,39,56,45,36,29.98,29.88,29.75,10,10,9,10,6,,0.00,0,,62
2011-10-18,60,53,46,43,39,36,76,67,45,29.89,29.84,29.72,10,10,9,12,6,21,0.82,7,Thunderstorm,329
2011-10-19,51,45,39,34,30,30,70,55,47,29.95,29.88,29.82,10,10,10,16,7,26,0.00,5,,295
2011-10-20,60,48,37,32,29,27,65,49,31,30.10,30.00,29.93,10,10,10,14,6,20,0.00,0,,288
2011-10-21,68,50,33,39,32,25,71,52,30,30.26,30.18,30.13,10,10,10,9,3,,0.00,0,,290
2011-10-22,75,58,42,46,40,34,76,53,31,30.17,30.11,30.03,10,10,4,8,2,,0.00,0,,171
2011-10-23,68,62,55,54,49,45,82,68,55,30.11,30.05,29.99,10,9,4,8,4,,0.10,4,,147
2011-10-24,80,63,46,55,50,41,82,65,37,30.22,30.16,30.12,10,9,3,8,3,,0.00,0,,197
2011-10-25,78,64,51,54,47,43,77,54,36,30.18,30.09,29.96,10,10,5,14,6,20,0.00,0,,182
2011-10-26,78,66,53,59,50,39,77,54,37,29.98,29.91,29.85,10,10,8,15,7,22,0.38,4,Thunderstorm,216
2011-10-27,53,50,48,46,42,37,82,73,62,30.11,30.03,29.93,10,8,3,10,5,,0.58,8,Thunderstorm,350
2011-10-28,59,50,42,39,35,30,76,59,34,30.21,30.16,30.10,10,10,6,9,4,20,0.14,5,,351
2011-10-29,64,50,35,34,28,27,75,46,24,30.27,30.19,30.13,10,10,10,7,4,16,0.00,0,,258
2011-10-30,64,54,44,34,30,25,50,40,28,30.23,30.15,30.08,10,10,10,14,5,20,0.00,0,,196
2011-10-31,69,53,37,37,31,27,75,45,20,30.21,30.17,30.14,10,10,10,9,3,16,0.00,0,,247